TimePDT,TemperatureF,Dew PointF,Humidity,Sea Level PressureIn,VisibilityMPH,Wind Direction,Wind SpeedMPH,Gust SpeedMPH,PrecipitationIn,Events,Conditions,WindDirDegrees,DateUTC
12:56 AM,23.0,17.1,78,30.30,10.0,Calm,Calm,-,N/A,,Clear,0,2012-10-04 07:56:00
1:56 AM,21.0,16.0,81,30.31,10.0,Calm,Calm,-,N/A,,Clear,0,2012-10-04 08:56:00
2:56 AM,19.9,15.1,81,30.30,10.0,Calm,Calm,-,N/A,,Clear,0,2012-10-04 09:56:00
3:56 AM,18.0,15.1,88,30.30,10.0,Calm,Calm,-,N/A,,Clear,0,2012-10-04 10:56:00
4:56 AM,18.0,12.9,81,30.29,10.0,Calm,Calm,-,N/A,,Clear,0,2012-10-04 11:56:00
5:56 AM,16.0,12.9,88,30.31,10.0,Calm,Calm,-,N/A,,Clear,0,2012-10-04 12:56:00
6:56 AM,16.0,12.9,88,30.32,10.0,Calm,Calm,-,N/A,,Clear,0,2012-10-04 13:56:00
7:56 AM,19.0,12.9,77,30.34,10.0,Calm,Calm,-,N/A,,Clear,0,2012-10-04 14:56:00
8:56 AM,30.0,18.0,61,30.33,10.0,Calm,Calm,-,N/A,,Clear,0,2012-10-04 15:56:00
9:56 AM,45.0,23.0,42,30.30,10.0,Calm,Calm,-,N/A,,Clear,0,2012-10-04 16:56:00
10:56 AM,50.0,21.0,32,30.28,10.0,Calm,Calm,-,N/A,,Clear,0,2012-10-04 17:56:00
11:56 AM,52.0,17.1,25,30.29,10.0,Variable,5.8,-,N/A,,Clear,0,2012-10-04 18:56:00
12:56 PM,52.0,23.0,32,30.29,10.0,Variable,4.6,-,N/A,,Clear,0,2012-10-04 19:56:00
1:56 PM,52.0,21.9,31,30.30,10.0,Variable,4.6,-,N/A,,Clear,0,2012-10-04 20:56:00
2:56 PM,50.0,21.9,33,30.30,10.0,Variable,4.6,-,N/A,,Clear,0,2012-10-04 21:56:00
3:56 PM,50.0,23.0,35,30.31,10.0,Variable,4.6,-,N/A,,Clear,0,2012-10-04 22:56:00
4:56 PM,46.9,25.0,42,30.32,10.0,Variable,3.5,-,N/A,,Clear,0,2012-10-04 23:56:00
5:56 PM,45.0,21.9,40,30.33,10.0,Calm,Calm,-,N/A,,Clear,0,2012-10-05 00:56:00
6:56 PM,37.9,21.0,51,30.35,10.0,Calm,Calm,-,N/A,,Clear,0,2012-10-05 01:56:00
7:56 PM,32.0,21.0,64,30.36,10.0,Calm,Calm,-,N/A,,Clear,0,2012-10-05 02:56:00
8:56 PM,28.0,19.0,69,30.35,10.0,Calm,Calm,-,N/A,,Clear,0,2012-10-05 03:56:00
9:56 PM,26.1,18.0,71,30.33,10.0,Calm,Calm,-,N/A,,Clear,0,2012-10-05 04:56:00
10:56 PM,25.0,17.1,72,30.31,10.0,Calm,Calm,-,N/A,,Clear,0,2012-10-05 05:56:00
11:56 PM,23.0,17.1,78,30.30,10.0,Calm,Calm,-,N/A,,Clear,0,2012-10-05 06:56:00